FW4822 Weather Reports


Display with metric or nautical units.
time (UTC)temp
F
wind
direction
speed
MPH
gust
MPH
rain 1hr
in
rain 24hr
in
rain mn
in
humidity
%
barometer
mb
20260508173009 50 294 2.0 10.0 0.00 0.13 0.01 64 1012.5
20260508171508 50 272 2.0 9.0 0.00 0.13 0.01 65 1012.7
20260508170006 50 269 2.0 8.0 0.00 0.13 0.01 68 1012.7
20260508164505 49 360 2.0 11.0 0.00 0.13 0.01 67 1012.8
20260508163002 48 27 3.0 13.0 0.00 0.13 0.01 71 1012.9
20260508161557 47 28 0.0 5.0 0.00 0.13 0.01 77 1013.1
20260508160126 45 265 2.0 8.0 0.00 0.13 0.01 83 1013.5
20260508154556 45 285 3.0 8.0 0.00 0.13 0.01 83 1013.2
20260508153049 46 239 2.0 8.0 0.00 0.13 0.01 84 1013.0
20260508151550 44 269 1.0 7.0 0.00 0.13 0.01 85 1012.9
20260508150046 44 289 1.0 8.0 0.00 0.13 0.01 85 1012.9
20260508144547 45 232 1.0 4.0 0.00 0.13 0.01 84 1012.7
20260508143057 45 195 0.0 8.0 0.00 0.13 0.01 87 1012.7
20260508141551 44 306 1.0 6.0 0.00 0.13 0.01 91 1012.5
20260508140041 43 257 2.0 6.0 0.00 0.13 0.01 94 1012.6
20260508134536 41 236 1.0 7.0 0.00 0.13 0.01 96 1012.7
20260508133036 40 250 2.0 7.0 0.00 0.13 0.01 96 1012.6
20260508131530 39 223 1.0 7.0 0.00 0.13 0.01 96 1012.7
20260508130027 39 238 0.0 5.0 0.00 0.13 0.01 96 1012.7
20260508124524 37 212 1.0 4.0 0.01 0.13 0.01 96 1012.3
20260508123023 36 240 0.0 3.0 0.01 0.13 0.01 96 1012.5
20260508121548 35 240 1.0 4.0 0.01 0.13 0.01 96 1012.8
20260508120022 35 240 0.0 3.0 0.01 0.13 0.01 96 1012.5
20260508114521 35 240 0.0 4.0 0.00 0.12 0.00 96 1012.9
20260508113021 35 239 0.0 3.0 0.00 0.12 0.00 96 1012.8
20260508111521 35 238 0.0 4.0 0.00 0.12 0.00 96 1012.6
20260508110019 35 238 0.0 2.0 0.00 0.12 0.00 96 1012.6
20260508104523 34 238 0.0 3.0 0.00 0.12 0.00 96 1012.5
20260508103018 35 238 0.0 0.0 0.00 0.12 0.00 96 1012.3
20260508101516 34 238 0.0 2.0 0.00 0.12 0.00 95 1012.4
20260508100015 34 238 0.0 3.0 0.00 0.12 0.00 95 1012.4
20260508094514 35 238 0.0 4.0 0.00 0.12 0.00 95 1012.4
20260508093021 35 261 2.0 6.0 0.00 0.12 0.00 95 1012.5
20260508091517 35 254 0.0 3.0 0.00 0.12 0.00 95 1012.4
20260508090017 35 275 1.0 3.0 0.00 0.12 0.00 95 1012.5
20260508084513 34 277 0.0 2.0 0.00 0.12 0.00 95 1012.3
20260508083032 35 277 0.0 0.0 0.00 0.12 0.00 95 1012.3
20260508081510 35 277 0.0 0.0 0.00 0.12 0.00 95 1012.3
20260508080009 35 277 0.0 4.0 0.00 0.12 0.00 95 1012.2
20260508074507 35 278 0.0 1.0 0.00 0.12 0.00 95 1012.3
20260508073007 36 278 0.0 3.0 0.00 0.12 0.00 95 1012.2
20260508071511 35 278 0.0 2.0 0.00 0.12 0.00 95 1012.1
20260508070009 35 278 0.0 2.0 0.00 0.12 0.00 94 1012.1
20260508064517 36 278 0.0 2.0 0.00 0.12 0.00 94 1012.2
20260508063003 37 278 0.0 3.0 0.00 0.12 0.12 95 1012.4
20260508061602 37 281 0.0 2.0 0.00 0.12 0.12 94 1012.5
20260508060106 37 281 0.0 3.0 0.00 0.12 0.12 94 1012.4
20260508054604 37 281 0.0 3.0 0.00 0.12 0.12 94 1012.3
20260508053101 37 281 0.0 2.0 0.00 0.12 0.12 93 1012.4
20260508051559 37 282 0.0 4.0 0.00 0.12 0.12 92 1012.4
20260508050100 38 284 1.0 4.0 0.00 0.12 0.12 92 1012.3
20260508044559 39 283 0.0 3.0 0.00 0.12 0.12 92 1012.3
20260508043058 39 282 0.0 3.0 0.00 0.12 0.12 92 1012.2
20260508041557 39 282 0.0 2.0 0.00 0.12 0.12 92 1012.2
20260508040055 39 285 0.0 2.0 0.00 0.12 0.12 93 1012.1
20260508034555 39 285 0.0 3.0 0.01 0.12 0.12 92 1012.0
20260508033053 39 285 0.0 2.0 0.02 0.12 0.12 92 1012.1
20260508031558 40 285 0.0 0.0 0.02 0.12 0.12 92 1012.0
20260508030114 40 285 0.0 1.0 0.05 0.12 0.12 92 1012.1
20260508024604 41 285 0.0 0.0 0.09 0.11 0.11 92 1012.4
20260508023055 41 285 0.0 0.0 0.10 0.10 0.10 91 1012.4
20260508021548 41 285 0.0 3.0 0.10 0.10 0.10 90 1012.3
20260508020049 41 291 0.0 7.0 0.08 0.08 0.08 87 1012.3
20260508014546 43 315 3.0 16.0 0.03 0.03 0.03 81 1012.1
20260508013045 47 18 1.0 5.0 0.00 0.00 0.00 64 1011.1
20260508011605 48 34 0.0 0.0 0.00 0.00 0.00 59 1010.2
20260508010106 48 34 0.0 1.0 0.00 0.00 0.00 58 1010.2
20260508004602 48 34 0.0 0.0 0.00 0.00 0.00 57 1009.9
20260508003109 49 54 0.0 3.0 0.00 0.00 0.00 56 1009.8
20260508001546 49 22 0.0 0.0 0.00 0.00 0.00 56 1009.6
20260508000044 50 21 0.0 1.0 0.00 0.00 0.00 55 1009.7
20260507234544 50 20 0.0 3.0 0.00 0.00 0.00 53 1009.5
20260507233044 50 75 0.0 3.0 0.00 0.00 0.00 53 1009.4
20260507231550 50 5 0.0 4.0 0.00 0.00 0.00 52 1009.2
20260507230042 51 55 0.0 4.0 0.00 0.00 0.00 52 1009.3
20260507224556 51 15 0.0 4.0 0.00 0.00 0.00 51 1009.4
20260507223042 51 44 1.0 7.0 0.00 0.00 0.00 50 1009.4
20260507221543 52 17 2.0 7.0 0.00 0.00 0.00 48 1009.3
20260507220042 53 17 1.0 4.0 0.00 0.00 0.00 45 1009.2
20260507214542 53 355 0.0 5.0 0.00 0.00 0.00 45 1009.3
20260507213050 53 325 1.0 7.0 0.00 0.00 0.00 44 1009.2
20260507211545 53 315 1.0 6.0 0.00 0.00 0.00 44 1009.1
20260507210051 53 5 1.0 8.0 0.00 0.00 0.00 43 1009.2
20260507204556 54 360 1.0 6.0 0.00 0.00 0.00 43 1009.2
20260507203044 54 291 1.0 7.0 0.00 0.00 0.00 43 1009.3
20260507201545 55 22 0.0 7.0 0.00 0.00 0.00 43 1009.3
20260507200044 56 316 2.0 6.0 0.00 0.00 0.00 40 1009.4
20260507194543 54 38 3.0 8.0 0.00 0.00 0.00 42 1009.6
20260507193041 54 21 0.0 9.0 0.00 0.00 0.00 43 1009.8
20260507191539 55 131 2.0 9.0 0.00 0.00 0.00 41 1009.7
20260507190042 55 303 1.0 6.0 0.00 0.00 0.00 40 1009.9
20260507184539 55 296 0.0 6.0 0.00 0.00 0.00 41 1009.9
20260507183040 55 55 2.0 7.0 0.00 0.02 0.00 43 1010.0
20260507181532 55 19 4.0 8.0 0.00 0.02 0.00 41 1010.3
20260507180033 53 228 3.0 9.0 0.00 0.02 0.00 46 1010.5
20260507174534 52 29 2.0 8.0 0.00 0.02 0.00 46 1010.5